Location: Quebec
(46.8000°N, 71.2500°W)
Time: 13:01:57
(UTC-04:00)

Tiangong 1 - Pass Details

Date: 07 October 2017
Orbit: 294 x 321 km, 42.8° (Epoch: 17 October)

Event Time Altitude Azimuth Distance (km) Brightness Sun altitude
Rises 18:47:57 0° 228° (SW) 2,035 5.6 -6.9°
Reaches altitude 10° 18:50:16 10° 208° (SSW) 1,202 4.0 -7.3°
Maximum altitude 18:52:14 18° 161° (SSE) 849 2.6 -7.6°
Drops below altitude 10° 18:54:11 10° 114° (ESE) 1,193 3.0 -7.9°
Enters shadow 18:54:13 10° 113° (ESE) 1,204 3.0 -8.0°
